Wind_Speed
13 13 13 13 12 12 12 12 12 12 12 12 13 12 12 12 12 12 12 13 13 13 14 15 16 16 16 17 17 16 17 18 18 18 19 20 21 21 21 21 21 21 21
15 13 13 13 13 14 14 13 13 13 13 13 14 14 13 13 13 13 13 13 14 15 16 17 17 16 16 17 17 16 17 17 18 19 19 20 21 21 22 22 22 22 22
16 15 15 15 16 16 16 15 14 14 14 15 15 16 16 15 15 14 14 14 14 15 16 17 17 17 17 17 17 17 18 18 19 20 21 21 22 22 22 23 23 23 24
16 16 17 18 18 19 17 16 15 15 15 16 16 17 17 16 15 15 15 15 16 17 17 17 17 17 18 18 18 19 19 20 21 22 22 23 23 23 23 24 24 25 26
17 17 18 19 19 18 17 17 16 16 16 17 17 18 18 17 16 17 17 18 18 18 18 19 19 19 20 20 20 20 21 22 22 23 24 24 24 24 24 25 26 26 27
19 19 19 18 17 17 17 17 17 17 17 17 18 18 18 18 18 18 19 19 19 19 20 20 21 21 22 22 23 23 24 24 25 25 25 25 25 25 26 26 27 27 28
20 20 20 19 18 19 18 18 18 18 19 19 19 19 20 19 20 21 21 21 21 21 22 22 22 23 24 25 25 25 26 26 26 26 26 27 27 27 27 28 28 28 29
20 21 21 20 19 19 19 19 19 20 21 21 21 22 22 22 22 23 23 24 23 23 23 24 25 25 27 27 28 28 28 28 28 28 29 29 29 29 28 28 29 29 30
22 22 22 21 20 20 21 21 21 22 23 23 23 24 24 24 24 24 25 25 24 25 25 26 26 27 28 29 29 29 29 29 30 30 31 31 30 30 30 30 30 30 31
24 23 23 22 22 22 22 22 23 24 24 24 25 25 25 25 25 26 27 27 27 27 27 28 28 29 29 29 29 29 29 30 30 31 31 31 31 30 31 31 32 32 32
23 24 24 23 23 23 23 23 23 24 24 24 25 25 26 26 26 27 28 29 29 29 29 29 29 29 29 30 30 29 29 30 30 31 32 31 31 32 32 32 32 33 33
25 25 24 24 24 24 24 24 24 24 24 24 25 26 26 26 27 27 27 27 28 28 29 29 29 29 29 29 29 30 30 31 31 31 32 32 32 33 33 32 33 33 34
24 24 24 24 24 24 24 25 24 24 24 24 25 25 26 26 26 27 27 27 27 28 29 29 29 30 30 30 30 31 31 31 31 31 31 32 33 33 33 33 34 34 34
25 25 25 24 24 24 24 24 25 25 25 25 25 25 26 26 27 27 26 27 28 29 28 29 29 29 29 29 29 29 30 31 31 31 31 31 32 32 33 34 34 34 35
25 24 24 24 24 23 23 24 24 25 25 25 24 25 26 26 26 27 27 28 28 29 28 28 27 27 28 28 28 28 29 29 30 30 30 30 31 32 33 33 34 35 36
24 24 24 24 22 22 22 23 23 23 24 25 25 25 25 26 26 26 26 27 27 27 27 27 27 27 28 28 29 29 29 29 29 30 30 30 31 32 33 33 34 35 35
24 24 23 22 22 22 22 23 23 23 23 23 24 24 25 26 26 26 26 26 27 27 26 27 28 28 28 28 28 29 29 29 30 30 31 32 32 33 33 33 34 35 35
23 22 21 22 22 22 22 23 23 23 22 23 24 25 25 25 25 25 25 27 27 27 27 27 28 28 28 29 29 30 30 30 30 31 31 32 32 33 33 34 34 35 35
21 21 21 21 21 22 22 22 23 23 23 23 24 24 24 24 24 25 26 27 27 27 27 28 28 29 29 30 31 30 30 31 31 31 32 33 33 34 34 35 35 35 35
21 21 21 21 21 21 22 22 22 23 23 24 24 24 25 25 25 25 26 27 27 27 27 28 28 29 30 30 30 31 31 31 32 32 33 33 34 34 35 35 35 35 35
20 21 21 21 21 21 21 21 22 23 23 24 24 24 25 25 25 25 26 26 27 27 28 28 29 30 30 30 30 31 31 32 32 33 33 33 33 34 34 33 34 33 33
20 20 21 20 20 20 21 21 22 22 23 24 24 25 26 26 26 26 27 27 28 29 29 29 29 30 30 30 30 31 31 31 31 31 31 32 32 32 32 32 32 32 32
20 20 20 20 20 21 22 23 23 24 24 24 25 26 26 26 26 26 27 27 28 29 29 29 29 29 29 29 30 30 30 30 30 31 31 32 32 32 32 32 32 32 32
19 19 20 21 22 23 23 23 23 24 24 25 25 25 26 26 26 26 26 27 27 28 28 28 28 28 28 29 29 29 29 29 30 31 31 31 31 31 31 31 31 31 31
19 20 20 20 21 21 22 22 23 23 24 24 24 25 26 26 26 26 26 27 27 27 27 27 28 27 27 27 27 28 29 29 30 31 31 30 30 30 30 30 30 30 31
19 20 20 20 20 21 22 22 23 23 23 24 24 25 25 25 25 26 26 26 26 26 26 26 26 26 26 27 27 28 29 30 31 31 30 29 29 29 29 29 29 29 29
Wind_Direction
301 300 298 295 293 290 289 290 291 295 298 300 303 306 308 305 302 300 297 295 293 292 292 291 291 292 294 294 293 289 287 286 283 282 285 287 286 285 285 285 285 283 281
295 297 292 289 290 292 290 289 288 291 294 297 300 301 303 304 300 299 299 298 296 294 294 292 291 293 294 296 294 292 293 290 286 286 287 287 288 286 286 287 287 286 283
292 292 289 287 290 290 290 289 288 288 293 295 296 297 299 300 299 297 297 298 298 297 298 297 294 293 294 295 294 293 293 292 290 289 289 289 290 288 287 287 287 286 284
288 289 288 287 286 288 288 289 288 288 291 292 293 294 296 299 299 297 297 298 298 297 297 297 296 297 295 294 294 293 293 293 292 291 292 292 291 289 287 288 288 287 286
286 287 287 286 283 284 285 285 286 288 289 291 292 293 294 295 298 299 296 296 298 297 295 294 294 295 296 296 295 294 293 293 292 292 291 292 292 291 290 288 289 288 287
283 285 288 286 283 284 284 282 284 288 290 292 294 295 297 297 298 299 298 297 298 298 296 295 294 294 295 295 295 294 294 295 293 293 293 293 293 293 292 290 289 289 289
280 283 285 285 286 287 284 282 282 284 287 290 292 293 293 295 296 296 296 297 296 296 295 294 293 293 294 294 295 295 294 294 293 292 291 292 292 293 293 291 290 290 290
278 281 284 284 283 283 283 280 280 283 285 286 289 290 290 291 293 294 295 296 294 293 292 291 291 291 292 292 292 293 293 293 293 292 290 290 291 291 291 292 291 290 290
274 276 279 280 279 279 279 279 281 283 284 285 286 288 289 288 288 289 292 295 294 292 290 290 290 290 291 291 291 291 290 290 291 291 290 290 290 289 289 291 291 292 293
272 273 275 277 278 277 278 278 280 282 282 283 283 286 288 289 290 289 290 293 294 293 292 291 291 291 291 291 292 292 291 291 291 291 291 290 290 291 292 292 291 292 293
272 273 274 274 275 277 278 279 280 281 281 283 283 286 287 288 291 291 291 292 293 294 293 292 292 292 292 292 293 292 292 293 293 293 292 290 290 292 293 292 292 293 294
272 273 273 274 275 276 277 278 280 280 281 282 284 285 286 288 291 293 293 293 294 294 293 293 293 293 293 293 293 293 293 294 294 293 292 291 292 293 293 292 293 293 293
271 272 274 275 276 276 277 277 279 281 281 282 285 287 289 290 291 292 292 294 295 296 295 294 294 294 294 294 294 294 294 294 293 293 293 292 292 293 293 293 293 294 294
272 273 274 275 276 275 276 279 281 283 284 284 287 288 288 290 291 292 292 292 294 297 297 295 296 297 297 297 296 295 295 295 294 295 296 295 295 294 294 293 293 295 296
274 274 274 276 275 275 278 281 283 285 285 284 286 288 290 290 290 291 292 294 296 297 297 298 297 297 298 298 297 297 297 297 297 297 297 298 298 297 297 297 296 296 296
272 273 273 274 273 274 277 280 282 284 285 287 288 290 291 292 293 293 294 295 296 296 295 296 297 298 298 299 299 299 299 299 299 299 298 298 299 298 298 298 298 298 297
272 272 271 271 273 275 277 280 283 285 288 288 289 292 292 292 292 292 292 294 295 296 295 296 297 298 298 299 300 300 300 299 299 299 298 298 298 299 299 300 300 300 299
271 270 271 272 273 275 277 281 283 285 287 288 290 292 292 292 292 293 293 294 295 296 294 295 297 299 299 300 301 300 300 300 299 299 299 299 300 300 300 300 300 300 300
269 270 271 273 274 276 278 281 282 285 287 288 290 291 292 294 295 295 293 294 296 297 296 297 298 299 300 301 301 302 302 302 301 300 299 300 301 300 300 300 300 299 300
268 269 271 272 274 277 280 281 283 286 286 286 290 292 293 294 295 296 296 297 297 298 299 300 300 300 301 301 302 303 303 303 302 302 301 302 302 302 302 302 301 301 301
269 270 272 274 275 277 279 281 283 285 286 288 291 291 291 293 294 295 296 298 300 301 301 302 301 301 302 302 303 304 304 304 303 304 303 303 304 304 303 303 303 303 304
270 272 273 275 276 277 279 282 285 287 289 291 293 292 292 293 294 294 296 299 301 302 303 303 303 303 304 305 305 305 305 305 305 306 306 306 306 306 305 304 305 305 306
269 271 274 276 277 279 281 284 286 287 290 291 292 292 292 292 293 295 298 299 300 301 303 304 303 303 304 304 305 306 306 307 308 309 309 309 308 307 306 306 306 306 307
272 274 278 281 281 283 283 284 285 287 289 291 292 293 293 294 296 297 299 300 302 303 304 304 304 304 304 305 306 308 309 309 310 311 311 310 310 309 308 308 308 308 308
276 278 281 284 282 283 284 286 288 289 291 292 291 292 294 295 297 298 299 300 301 303 304 304 305 305 306 307 309 310 311 312 313 312 312 311 310 310 311 311 311 310 311
277 281 284 285 285 287 289 291 292 292 293 293 294 295 297 297 297 299 300 300 301 301 303 304 306 307 308 309 310 311 312 313 313 313 312 311 310 311 312 312 313 314 315
Height
5904 5903 5902 5901 5900 5900 5899 5898 5898 5897 5896 5895 5894 5893 5891 5889 5888 5886 5885 5884 5883 5882 5880 5879 5877 5876 5874 5873 5871 5869 5868 5867 5865 5864 5863 5861 5860 5859 5857 5856 5854 5853 5852
5901 5899 5899 5898 5897 5897 5897 5896 5895 5894 5894 5893 5892 5890 5889 5887 5885 5884 5882 5881 5880 5878 5877 5875 5874 5872 5871 5869 5867 5865 5864 5862 5861 5860 5858 5857 5855 5853 5852 5850 5848 5847 5846
5898 5897 5896 5895 5895 5894 5894 5892 5891 5891 5890 5890 5889 5887 5886 5884 5882 5881 5879 5877 5876 5875 5873 5871 5870 5868 5867 5865 5863 5862 5860 5858 5856 5855 5854 5852 5850 5848 5846 5844 5843 5841 5840
5894 5893 5892 5891 5891 5890 5890 5889 5888 5887 5887 5886 5885 5884 5882 5881 5879 5877 5876 5874 5872 5871 5869 5867 5866 5864 5862 5861 5859 5857 5855 5853 5852 5850 5848 5846 5844 5842 5840 5838 5836 5834 5833
5891 5890 5888 5886 5885 5886 5885 5884 5884 5883 5882 5882 5881 5880 5878 5877 5875 5873 5872 5870 5868 5866 5865 5863 5862 5860 5858 5856 5854 5852 5850 5848 5846 5844 5843 5841 5838 5836 5834 5832 5829 5827 5825
5886 5885 5884 5882 5880 5881 5881 5880 5880 5879 5878 5878 5877 5875 5874 5873 5871 5869 5867 5866 5864 5862 5860 5858 5857 5855 5853 5851 5849 5847 5845 5843 5841 5838 5836 5834 5832 5829 5827 5825 5822 5820 5818
5881 5880 5879 5878 5877 5877 5876 5876 5875 5875 5874 5873 5872 5871 5869 5868 5866 5865 5863 5861 5859 5857 5855 5853 5851 5849 5848 5846 5843 5841 5839 5837 5834 5832 5830 5827 5825 5822 5820 5817 5815 5813 5810
5876 5875 5875 5874 5873 5872 5872 5871 5871 5870 5869 5868 5867 5866 5864 5863 5861 5860 5858 5856 5854 5852 5849 5847 5845 5843 5841 5839 5837 5834 5832 5830 5827 5825 5823 5820 5818 5815 5812 5810 5807 5804 5802
5870 5870 5869 5869 5868 5867 5866 5866 5865 5864 5864 5862 5861 5860 5858 5856 5855 5853 5852 5850 5848 5846 5843 5841 5839 5837 5834 5832 5829 5827 5825 5822 5820 5817 5815 5812 5810 5807 5804 5802 5799 5796 5793
5864 5863 5863 5863 5862 5861 5860 5860 5859 5858 5857 5856 5855 5854 5852 5850 5849 5847 5845 5843 5841 5839 5837 5835 5832 5830 5827 5824 5822 5819 5817 5814 5812 5809 5806 5804 5801 5799 5796 5793 5790 5787 5784
5856 5856 5857 5856 5856 5855 5854 5853 5852 5852 5851 5850 5849 5847 5845 5844 5842 5840 5838 5836 5834 5832 5829 5827 5824 5822 5819 5817 5814 5812 5809 5806 5803 5800 5798 5795 5793 5790 5787 5784 5781 5778 5775
5850 5850 5850 5850 5849 5848 5848 5847 5846 5845 5844 5843 5841 5840 5838 5837 5835 5832 5830 5828 5826 5824 5821 5818 5816 5814 5811 5809 5806 5804 5801 5798 5795 5792 5789 5786 5783 5781 5778 5775 5772 5769 5766
5844 5844 5843 5843 5842 5841 5841 5840 5839 5838 5837 5836 5834 5833 5831 5829 5828 5826 5823 5821 5819 5816 5813 5810 5808 5805 5803 5800 5798 5795 5792 5789 5786 5783 5780 5777 5774 5771 5768 5766 5762 5759 5756
5837 5837 5836 5836 5835 5835 5834 5833 5832 5831 5830 5829 5827 5826 5824 5822 5820 5818 5816 5814 5811 5809 5806 5803 5800 5798 5795 5792 5789 5786 5783 5780 5777 5774 5771 5768 5765 5762 5759 5756 5753 5749 5746
5830 5830 5830 5829 5828 5828 5827 5826 5825 5824 5823 5822 5821 5819 5817 5815 5813 5811 5809 5806 5804 5801 5798 5796 5793 5790 5787 5784 5781 5778 5775 5772 5769 5766 5763 5760 5756 5753 5750 5746 5743 5739 5736
5823 5823 5823 5823 5822 5821 5821 5820 5819 5818 5817 5816 5814 5812 5810 5808 5806 5804 5802 5799 5796 5794 5791 5789 5786 5783 5780 5776 5773 5770 5767 5763 5760 5757 5754 5751 5748 5744 5740 5737 5733 5729 5725
5816 5816 5816 5816 5816 5816 5815 5814 5813 5812 5811 5809 5807 5806 5804 5802 5800 5797 5795 5793 5790 5787 5784 5781 5778 5775 5772 5768 5765 5762 5758 5755 5752 5749 5746 5742 5739 5735 5731 5727 5723 5719 5715
5809 5809 5810 5810 5809 5809 5808 5808 5807 5806 5804 5802 5801 5799 5797 5795 5793 5791 5788 5786 5783 5780 5777 5774 5771 5767 5764 5761 5757 5754 5750 5747 5744 5740 5737 5733 5730 5726 5722 5718 5714 5709 5705
5803 5803 5804 5804 5803 5803 5802 5801 5800 5799 5797 5796 5794 5792 5790 5788 5786 5784 5781 5779 5776 5773 5770 5766 5763 5760 5756 5753 5749 5746 5742 5739 5735 5731 5728 5724 5720 5716 5712 5708 5704 5699 5695
5797 5798 5798 5798 5797 5796 5796 5795 5793 5792 5791 5789 5787 5785 5783 5781 5779 5776 5774 5771 5768 5765 5762 5759 5755 5752 5748 5745 5741 5738 5734 5730 5726 5722 5718 5714 5710 5706 5702 5698 5694 5689 5685
5791 5791 5791 5791 5791 5790 5789 5788 5787 5785 5784 5782 5780 5778 5776 5774 5771 5769 5767 5764 5761 5758 5754 5751 5747 5744 5741 5737 5733 5729 5725 5721 5718 5713 5709 5705 5701 5697 5692 5688 5684 5679 5675
5785 5785 5785 5784 5784 5783 5783 5781 5780 5778 5777 5775 5772 5770 5768 5766 5764 5762 5759 5756 5753 5750 5747 5743 5740 5736 5732 5729 5725 5721 5717 5713 5709 5705 5700 5696 5692 5688 5684 5679 5675 5670 5666
5780 5779 5779 5778 5778 5777 5776 5775 5773 5771 5769 5767 5765 5763 5761 5758 5756 5754 5751 5748 5745 5742 5739 5735 5732 5728 5724 5721 5717 5713 5709 5705 5701 5696 5692 5688 5684 5679 5675 5671 5666 5662 5657
5774 5774 5773 5772 5771 5770 5769 5767 5765 5764 5762 5760 5758 5756 5753 5751 5749 5746 5743 5741 5737 5734 5731 5727 5724 5720 5717 5713 5709 5705 5701 5697 5693 5689 5684 5680 5676 5671 5667 5662 5658 5653 5649
5769 5768 5767 5766 5764 5763 5762 5760 5758 5756 5755 5753 5751 5748 5746 5744 5741 5739 5736 5733 5730 5727 5723 5720 5716 5713 5709 5706 5702 5698 5694 5689 5685 5681 5677 5672 5668 5663 5659 5655 5650 5646 5641
5763 5762 5761 5759 5758 5757 5755 5753 5751 5749 5747 5745 5743 5741 5739 5736 5734 5731 5728 5725 5722 5719 5716 5713 5709 5706 5702 5698 5695 5691 5687 5682 5678 5673 5669 5664 5660 5656 5652 5647 5643 5638 5634